Time,TemperatureF,DewpointF,PressureIn,WindDirection,WindDirectionDegrees,WindSpeedMPH,WindSpeedGustMPH,Humidity,HourlyPrecipIn,Conditions,Clouds,dailyrainin,SoftwareType,DateUTC
2013-02-14 00:00:00,69.1,57.3,30.01,ENE,65,12.0,18.0,66,0.00,,---,0.00,VWS V14.01,2013-02-14 10:00:00,
2013-02-14 00:02:00,68.8,57.4,30.02,NE,51,6.0,22.0,67,0.00,,---,0.00,VWS V14.01,2013-02-14 10:02:00,
2013-02-14 00:07:00,68.8,57.4,30.02,ENE,70,4.0,17.0,67,0.00,,---,0.00,VWS V14.01,2013-02-14 10:07:00,
2013-02-14 00:12:00,68.9,57.5,30.02,East,82,9.0,18.0,67,0.00,,---,0.00,VWS V14.01,2013-02-14 10:12:00,
2013-02-14 00:17:00,69.1,57.7,30.03,ESE,106,8.0,22.0,67,0.00,,---,0.00,VWS V14.01,2013-02-14 10:17:00,
2013-02-14 00:22:00,69.1,57.7,30.02,East,89,19.0,25.0,67,0.00,,---,0.00,VWS V14.01,2013-02-14 10:22:00,
2013-02-14 00:27:00,69.2,57.8,30.03,East,88,2.0,25.0,67,0.00,,---,0.00,VWS V14.01,2013-02-14 10:27:00,
2013-02-14 00:30:00,68.7,57.3,30.00,East,81,11.0,22.0,67,0.00,,---,0.00,VWS V14.01,2013-02-14 10:30:00,
2013-02-14 00:32:00,69.1,57.7,30.02,ESE,112,7.0,25.0,67,0.00,,---,0.00,VWS V14.01,2013-02-14 10:32:00,
2013-02-14 00:37:00,69.1,57.7,30.02,East,86,8.0,17.0,67,0.00,,---,0.00,VWS V14.01,2013-02-14 10:37:00,
2013-02-14 00:42:00,69.2,57.8,30.02,NE,39,7.0,17.0,67,0.00,,---,0.00,VWS V14.01,2013-02-14 10:42:00,
2013-02-14 00:47:00,69.3,57.9,30.02,NNE,33,10.0,18.0,67,0.00,,---,0.00,VWS V14.01,2013-02-14 10:47:00,
2013-02-14 00:52:00,69.3,57.9,30.02,NE,46,6.0,18.0,67,0.00,,---,0.00,VWS V14.01,2013-02-14 10:52:00,
2013-02-14 00:58:00,69.1,57.7,30.01,ENE,62,8.0,18.0,67,0.00,,---,0.00,VWS V14.01,2013-02-14 10:58:00,
2013-02-14 01:00:00,68.6,56.8,30.00,East,88,6.0,24.0,66,0.00,,---,0.00,VWS V14.01,2013-02-14 11:00:00,
2013-02-14 01:03:00,69.1,57.3,30.01,ENE,67,15.0,18.0,66,0.00,,---,0.00,VWS V14.01,2013-02-14 11:03:00,
2013-02-14 01:08:00,69.1,57.3,30.01,East,92,17.0,19.0,66,0.00,,---,0.00,VWS V14.01,2013-02-14 11:08:00,
2013-02-14 01:13:00,69.1,57.3,30.01,East,96,15.0,22.0,66,0.00,,---,0.00,VWS V14.01,2013-02-14 11:13:00,
2013-02-14 01:18:00,68.9,57.5,30.01,ENE,63,8.0,22.0,67,0.00,,---,0.00,VWS V14.01,2013-02-14 11:18:00,
2013-02-14 01:23:00,68.8,57.4,30.01,ENE,66,8.0,22.0,67,0.00,,---,0.00,VWS V14.01,2013-02-14 11:23:00,
2013-02-14 01:28:00,68.8,57.4,30.00,ESE,103,9.0,22.0,67,0.00,,---,0.00,VWS V14.01,2013-02-14 11:28:00,
2013-02-14 01:30:00,68.7,56.9,29.99,NNE,30,7.0,22.0,66,0.00,,---,0.00,VWS V14.01,2013-02-14 11:30:00,
2013-02-14 01:33:00,68.7,57.3,30.00,ENE,59,8.0,22.0,67,0.00,,---,0.00,VWS V14.01,2013-02-14 11:33:00,
2013-02-14 01:38:00,68.7,57.3,30.01,East,82,11.0,24.0,67,0.00,,---,0.00,VWS V14.01,2013-02-14 11:38:00,
2013-02-14 01:43:00,68.6,56.8,30.01,NE,51,6.0,24.0,66,0.00,,---,0.00,VWS V14.01,2013-02-14 11:43:00,
2013-02-14 01:48:00,68.6,56.8,30.01,ENE,67,9.0,24.0,66,0.00,,---,0.00,VWS V14.01,2013-02-14 11:48:00,
2013-02-14 01:53:00,68.5,56.3,30.00,ENE,68,10.0,24.0,65,0.00,,---,0.00,VWS V14.01,2013-02-14 11:53:00,
2013-02-14 01:58:00,68.6,56.8,30.00,NE,42,10.0,24.0,66,0.00,,---,0.00,VWS V14.01,2013-02-14 11:58:00,
2013-02-14 02:00:00,68.5,56.3,29.98,North,5,14.0,23.0,65,0.00,,---,0.00,VWS V14.01,2013-02-14 12:00:00,
2013-02-14 02:03:00,68.6,56.8,30.00,ENE,65,5.0,24.0,66,0.00,,---,0.00,VWS V14.01,2013-02-14 12:03:00,
2013-02-14 02:08:00,68.5,56.7,29.99,NE,53,11.0,16.0,66,0.00,,---,0.00,VWS V14.01,2013-02-14 12:08:00,
2013-02-14 02:13:00,68.6,56.4,29.99,NE,44,9.0,22.0,65,0.00,,---,0.00,VWS V14.01,2013-02-14 12:13:00,
2013-02-14 02:18:00,68.7,56.5,29.99,NE,44,3.0,22.0,65,0.00,,---,0.00,VWS V14.01,2013-02-14 12:18:00,
2013-02-14 02:23:00,68.9,56.2,29.99,NE,42,9.0,22.0,64,0.00,,---,0.00,VWS V14.01,2013-02-14 12:23:00,
2013-02-14 02:29:00,68.9,56.7,29.99,NE,42,9.0,22.0,65,0.00,,---,0.00,VWS V14.01,2013-02-14 12:29:00,
2013-02-14 02:30:00,68.6,55.5,29.98,ENE,77,5.0,23.0,63,0.00,,---,0.00,VWS V14.01,2013-02-14 12:30:00,
2013-02-14 02:34:00,68.7,56.9,29.99,NE,48,8.0,22.0,66,0.00,,---,0.00,VWS V14.01,2013-02-14 12:34:00,
2013-02-14 02:39:00,68.6,56.8,29.99,NE,42,8.0,20.0,66,0.00,,---,0.00,VWS V14.01,2013-02-14 12:39:00,
2013-02-14 02:44:00,68.6,56.8,29.99,ENE,75,14.0,20.0,66,0.00,,---,0.00,VWS V14.01,2013-02-14 12:44:00,
2013-02-14 02:49:00,68.5,56.7,29.99,NE,49,6.0,20.0,66,0.00,,---,0.00,VWS V14.01,2013-02-14 12:49:00,
2013-02-14 02:54:00,68.5,56.7,29.99,East,92,8.0,21.0,66,0.00,,---,0.00,VWS V14.01,2013-02-14 12:54:00,
2013-02-14 02:59:00,68.5,56.7,29.99,ENE,65,12.0,21.0,66,0.00,,---,0.00,VWS V14.01,2013-02-14 12:59:00,
2013-02-14 03:00:00,68.5,55.4,29.98,ESE,115,11.0,22.0,63,0.00,,---,0.00,VWS V14.01,2013-02-14 13:00:00,
2013-02-14 03:04:00,68.5,56.3,29.99,East,92,10.0,14.0,65,0.00,,---,0.00,VWS V14.01,2013-02-14 13:04:00,
2013-02-14 03:09:00,68.5,56.3,29.99,NE,37,19.0,19.0,65,0.00,,---,0.00,VWS V14.01,2013-02-14 13:09:00,
2013-02-14 03:14:00,68.6,56.0,29.98,NE,42,8.0,23.0,64,0.00,,---,0.00,VWS V14.01,2013-02-14 13:14:00,
2013-02-14 03:19:00,68.7,55.6,29.98,NE,44,6.0,23.0,63,0.00,,---,0.00,VWS V14.01,2013-02-14 13:19:00,
2013-02-14 03:24:00,68.9,55.8,29.98,NE,42,4.0,23.0,63,0.00,,---,0.00,VWS V14.01,2013-02-14 13:24:00,
2013-02-14 03:29:00,68.8,55.7,29.98,ENE,61,3.0,23.0,63,0.00,,---,0.00,VWS V14.01,2013-02-14 13:29:00,
2013-02-14 03:30:00,68.5,55.4,29.97,NE,40,9.0,18.0,63,0.00,,---,0.00,VWS V14.01,2013-02-14 13:30:00,
2013-02-14 03:34:00,68.6,55.5,29.98,NE,45,6.0,13.0,63,0.00,,---,0.00,VWS V14.01,2013-02-14 13:34:00,
2013-02-14 03:39:00,68.5,55.9,29.98,NE,46,4.0,21.0,64,0.00,,---,0.00,VWS V14.01,2013-02-14 13:39:00,
2013-02-14 03:44:00,68.6,55.5,29.98,North,11,11.0,21.0,63,0.00,,---,0.00,VWS V14.01,2013-02-14 13:44:00,
2013-02-14 03:49:00,68.6,55.1,29.98,NE,35,14.0,21.0,62,0.00,,---,0.00,VWS V14.01,2013-02-14 13:49:00,
2013-02-14 03:54:00,68.6,55.1,29.98,ENE,68,17.0,21.0,62,0.00,,---,0.00,VWS V14.01,2013-02-14 13:54:00,
2013-02-14 03:59:00,68.6,55.5,29.98,East,91,10.0,22.0,63,0.00,,---,0.00,VWS V14.01,2013-02-14 13:59:00,
2013-02-14 04:00:00,68.9,55.8,29.97,East,90,5.0,25.0,63,0.00,,---,0.00,VWS V14.01,2013-02-14 14:00:00,
2013-02-14 04:04:00,68.5,55.4,29.98,NE,50,6.0,13.0,63,0.00,,---,0.00,VWS V14.01,2013-02-14 14:04:00,
2013-02-14 04:09:00,68.4,54.9,29.98,East,94,7.0,18.0,62,0.00,,---,0.00,VWS V14.01,2013-02-14 14:09:00,
2013-02-14 04:14:00,68.6,55.1,29.98,East,99,14.0,18.0,62,0.00,,---,0.00,VWS V14.01,2013-02-14 14:14:00,
2013-02-14 04:19:00,68.6,55.5,29.98,ENE,59,12.0,18.0,63,0.00,,---,0.00,VWS V14.01,2013-02-14 14:19:00,
2013-02-14 04:24:00,68.5,55.4,29.97,NE,48,11.0,18.0,63,0.00,,---,0.00,VWS V14.01,2013-02-14 14:24:00,
2013-02-14 04:29:00,68.5,55.4,29.97,ENE,57,9.0,18.0,63,0.00,,---,0.00,VWS V14.01,2013-02-14 14:29:00,
2013-02-14 04:30:00,68.2,55.1,29.98,NE,52,10.0,19.0,63,0.00,,---,0.00,VWS V14.01,2013-02-14 14:30:00,
2013-02-14 04:35:00,68.5,55.4,29.97,NE,52,5.0,10.0,63,0.00,,---,0.00,VWS V14.01,2013-02-14 14:35:00,
2013-02-14 04:40:00,68.5,55.4,29.97,ENE,72,14.0,18.0,63,0.00,,---,0.00,VWS V14.01,2013-02-14 14:40:00,
2013-02-14 04:45:00,68.6,55.1,29.97,NNE,32,11.0,22.0,62,0.00,,---,0.00,VWS V14.01,2013-02-14 14:45:00,
2013-02-14 04:50:00,68.8,55.3,29.97,ENE,60,8.0,22.0,62,0.00,,---,0.00,VWS V14.01,2013-02-14 14:50:00,
2013-02-14 04:55:00,69.0,55.5,29.97,ENE,73,12.0,25.0,62,0.00,,---,0.00,VWS V14.01,2013-02-14 14:55:00,
2013-02-14 05:00:00,69.0,55.5,29.97,NE,56,7.0,25.0,62,0.00,,---,0.00,VWS V14.01,2013-02-14 15:00:00,
2013-02-14 05:01:00,68.9,55.8,29.98,NE,46,9.0,18.0,63,0.00,,---,0.00,VWS V14.01,2013-02-14 15:01:00,
2013-02-14 05:03:00,69.0,55.9,29.99,ENE,62,13.0,18.0,63,0.00,,---,0.00,VWS V14.01,2013-02-14 15:03:00,
2013-02-14 05:05:00,68.8,55.7,29.97,NNE,22,11.0,16.0,63,0.00,,---,0.00,VWS V14.01,2013-02-14 15:05:00,
2013-02-14 05:06:00,69.0,55.9,29.99,NE,48,10.0,21.0,63,0.00,,---,0.00,VWS V14.01,2013-02-14 15:06:00,
2013-02-14 05:07:00,69.0,55.9,29.99,NE,45,12.0,21.0,63,0.00,,---,0.00,VWS V14.01,2013-02-14 15:07:00,
2013-02-14 05:08:00,69.0,55.9,29.99,East,81,15.0,21.0,63,0.00,,---,0.00,VWS V14.01,2013-02-14 15:08:00,
2013-02-14 05:09:00,69.0,55.9,29.99,NE,55,5.0,21.0,63,0.00,,---,0.00,VWS V14.01,2013-02-14 15:09:00,
2013-02-14 05:10:00,68.8,55.7,29.97,NNE,29,12.0,16.0,63,0.00,,---,0.00,VWS V14.01,2013-02-14 15:10:00,
2013-02-14 05:11:00,69.0,56.3,29.99,ENE,73,11.0,21.0,64,0.00,,---,0.00,VWS V14.01,2013-02-14 15:11:00,
2013-02-14 05:14:00,68.9,56.2,29.99,East,94,13.0,21.0,64,0.00,,---,0.00,VWS V14.01,2013-02-14 15:14:00,
2013-02-14 05:15:00,68.7,55.6,29.97,East,90,15.0,18.0,63,0.00,,---,0.00,VWS V14.01,2013-02-14 15:15:00,
2013-02-14 05:16:00,68.9,56.2,29.99,NNE,27,16.0,22.0,64,0.00,,---,0.00,VWS V14.01,2013-02-14 15:16:00,
2013-02-14 05:17:00,68.9,56.2,29.99,ENE,68,11.0,22.0,64,0.00,,---,0.00,VWS V14.01,2013-02-14 15:17:00,
2013-02-14 05:20:00,68.7,55.2,29.97,NNE,20,5.0,18.0,62,0.00,,---,0.00,VWS V14.01,2013-02-14 15:20:00,
2013-02-14 05:21:00,69.0,55.9,29.99,NE,55,14.0,22.0,63,0.00,,---,0.00,VWS V14.01,2013-02-14 15:21:00,
2013-02-14 05:22:00,69.0,55.9,29.99,East,99,11.0,22.0,63,0.00,,---,0.00,VWS V14.01,2013-02-14 15:22:00,
2013-02-14 05:23:00,69.0,55.9,29.99,ENE,67,10.0,22.0,63,0.00,,---,0.00,VWS V14.01,2013-02-14 15:23:00,
2013-02-14 05:24:00,69.0,56.3,29.99,NE,44,9.0,22.0,64,0.00,,---,0.00,VWS V14.01,2013-02-14 15:24:00,
2013-02-14 05:25:00,68.7,55.2,29.97,East,94,11.0,18.0,62,0.00,,---,0.00,VWS V14.01,2013-02-14 15:25:00,
2013-02-14 05:28:00,68.9,56.2,30.00,ENE,69,9.0,22.0,64,0.00,,---,0.00,VWS V14.01,2013-02-14 15:28:00,
2013-02-14 05:30:00,68.8,56.1,30.00,East,80,13.0,22.0,64,0.00,,---,0.00,VWS V14.01,2013-02-14 15:30:00,
2013-02-14 05:31:00,68.5,55.4,29.97,NE,37,4.0,18.0,63,0.00,,---,0.00,VWS V14.01,2013-02-14 15:31:00,
2013-02-14 05:32:00,68.7,56.0,30.01,East,84,11.0,18.0,64,0.00,,---,0.00,VWS V14.01,2013-02-14 15:32:00,
2013-02-14 05:33:00,68.6,56.0,30.00,NE,44,5.0,18.0,64,0.00,,---,0.00,VWS V14.01,2013-02-14 15:33:00,
2013-02-14 05:34:00,68.6,56.4,30.00,ESE,119,8.0,18.0,65,0.00,,---,0.00,VWS V14.01,2013-02-14 15:34:00,
2013-02-14 05:35:00,68.5,56.3,30.00,East,80,8.0,18.0,65,0.00,,---,0.00,VWS V14.01,2013-02-14 15:35:00,
2013-02-14 05:36:00,68.5,55.9,30.00,ENE,75,8.0,18.0,64,0.00,,---,0.00,VWS V14.01,2013-02-14 15:36:00,
2013-02-14 05:37:00,68.4,55.8,30.00,East,91,5.0,18.0,64,0.00,,---,0.00,VWS V14.01,2013-02-14 15:37:00,
2013-02-14 05:38:00,68.4,55.8,30.00,East,94,11.0,18.0,64,0.00,,---,0.00,VWS V14.01,2013-02-14 15:38:00,
2013-02-14 05:41:00,68.1,55.9,29.97,NE,44,7.0,13.0,65,0.00,,---,0.00,VWS V14.01,2013-02-14 15:41:00,
2013-02-14 05:43:00,68.4,55.8,30.01,East,86,9.0,18.0,64,0.00,,---,0.00,VWS V14.01,2013-02-14 15:43:00,
2013-02-14 05:44:00,68.4,55.8,30.01,ENE,65,10.0,18.0,64,0.00,,---,0.00,VWS V14.01,2013-02-14 15:44:00,
2013-02-14 05:45:00,68.3,55.7,30.01,East,86,9.0,18.0,64,0.00,,---,0.00,VWS V14.01,2013-02-14 15:45:00,
2013-02-14 05:46:00,68.1,56.3,29.98,ENE,67,9.0,17.0,66,0.00,,---,0.00,VWS V14.01,2013-02-14 15:46:00,
2013-02-14 05:47:00,68.3,55.7,30.01,ESE,116,13.0,18.0,64,0.00,,---,0.00,VWS V14.01,2013-02-14 15:47:00,
2013-02-14 05:48:00,68.3,55.7,30.01,East,89,6.0,18.0,64,0.00,,---,0.00,VWS V14.01,2013-02-14 15:48:00,
2013-02-14 05:49:00,68.2,55.6,30.01,NE,49,8.0,18.0,64,0.00,,---,0.00,VWS V14.01,2013-02-14 15:49:00,
2013-02-14 05:51:00,68.4,56.2,29.98,NE,44,5.0,19.0,65,0.00,,---,0.00,VWS V14.01,2013-02-14 15:51:00,
2013-02-14 05:52:00,68.0,55.4,30.01,NNE,12,9.0,18.0,64,0.00,,---,0.00,VWS V14.01,2013-02-14 15:52:00,
2013-02-14 05:53:00,67.9,55.3,30.01,ESE,108,13.0,18.0,64,0.00,,---,0.00,VWS V14.01,2013-02-14 15:53:00,
2013-02-14 05:54:00,67.9,55.3,30.01,ENE,62,7.0,18.0,64,0.00,,---,0.00,VWS V14.01,2013-02-14 15:54:00,
2013-02-14 05:56:00,68.6,56.0,29.98,NE,42,17.0,19.0,64,0.00,,---,0.00,VWS V14.01,2013-02-14 15:56:00,
2013-02-14 05:57:00,67.9,55.3,30.01,East,99,9.0,21.0,64,0.00,,---,0.00,VWS V14.01,2013-02-14 15:57:00,
2013-02-14 05:59:00,67.8,55.2,30.01,ESE,111,10.0,21.0,64,0.00,,---,0.00,VWS V14.01,2013-02-14 15:59:00,
2013-02-14 06:00:00,67.9,55.3,30.01,East,95,10.0,19.0,64,0.00,,---,0.00,VWS V14.01,2013-02-14 16:00:00,
2013-02-14 06:01:00,68.8,56.1,29.99,NE,44,4.0,19.0,64,0.00,,---,0.00,VWS V14.01,2013-02-14 16:01:00,
2013-02-14 06:02:00,67.9,55.3,30.01,East,84,13.0,19.0,64,0.00,,---,0.00,VWS V14.01,2013-02-14 16:02:00,
2013-02-14 06:04:00,67.9,55.3,30.01,ENE,68,7.0,19.0,64,0.00,,---,0.00,VWS V14.01,2013-02-14 16:04:00,
2013-02-14 06:05:00,67.9,55.3,30.01,ENE,78,10.0,19.0,64,0.00,,---,0.00,VWS V14.01,2013-02-14 16:05:00,
2013-02-14 06:06:00,69.0,55.9,29.99,North,5,7.0,18.0,63,0.00,,---,0.00,VWS V14.01,2013-02-14 16:06:00,
2013-02-14 06:07:00,68.0,55.4,30.02,ENE,71,7.0,23.0,64,0.00,,---,0.00,VWS V14.01,2013-02-14 16:07:00,
2013-02-14 06:08:00,68.1,55.5,30.02,ENE,62,10.0,23.0,64,0.00,,---,0.00,VWS V14.01,2013-02-14 16:08:00,
2013-02-14 06:10:00,68.2,55.6,30.01,ENE,61,10.0,23.0,64,0.00,,---,0.00,VWS V14.01,2013-02-14 16:10:00,
2013-02-14 06:11:00,68.2,55.6,30.01,East,96,11.0,23.0,64,0.00,,---,0.00,VWS V14.01,2013-02-14 16:11:00,
2013-02-14 06:12:00,68.2,55.6,30.02,East,81,10.0,23.0,64,0.00,,---,0.00,VWS V14.01,2013-02-14 16:12:00,
2013-02-14 06:14:00,68.3,55.7,30.02,ENE,73,5.0,23.0,64,0.00,,---,0.00,VWS V14.01,2013-02-14 16:14:00,
2013-02-14 06:16:00,68.9,56.2,29.99,NE,41,9.0,21.0,64,0.00,,---,0.00,VWS V14.01,2013-02-14 16:16:00,
2013-02-14 06:22:00,68.9,55.8,29.99,ENE,73,8.0,22.0,63,0.00,,---,0.00,VWS V14.01,2013-02-14 16:22:00,
2013-02-14 06:27:00,69.1,56.4,30.02,East,90,7.0,23.0,64,0.00,,---,0.00,VWS V14.01,2013-02-14 16:27:00,
2013-02-14 06:29:00,69.0,56.3,29.99,ENE,69,12.0,22.0,64,0.00,,---,0.00,VWS V14.01,2013-02-14 16:29:00,
2013-02-14 06:30:00,69.3,56.2,30.03,ENE,77,10.0,10.0,63,0.00,,---,0.00,VWS V14.01,2013-02-14 16:30:00,
2013-02-14 06:31:00,69.4,56.3,30.03,ENE,76,13.0,15.0,63,0.00,,---,0.00,VWS V14.01,2013-02-14 16:31:00,
2013-02-14 06:34:00,68.8,56.1,30.00,ENE,70,15.0,16.0,64,0.00,,---,0.00,VWS V14.01,2013-02-14 16:34:00,
2013-02-14 06:43:00,68.4,55.8,30.01,ENE,74,5.0,18.0,64,0.00,,---,0.00,VWS V14.01,2013-02-14 16:43:00,
2013-02-14 06:55:00,68.1,55.5,30.01,East,94,7.0,18.0,64,0.00,,---,0.00,VWS V14.01,2013-02-14 16:55:00,
2013-02-14 07:00:00,67.9,55.3,30.01,East,83,15.0,18.0,64,0.00,,---,0.00,VWS V14.01,2013-02-14 17:00:00,
2013-02-14 07:08:00,67.9,55.3,30.01,ENE,69,10.0,19.0,64,0.00,,---,0.00,VWS V14.01,2013-02-14 17:08:00,
2013-02-14 07:14:00,68.1,55.5,30.01,NNE,33,17.0,23.0,64,0.00,,---,0.00,VWS V14.01,2013-02-14 17:14:00,
2013-02-14 07:19:00,68.3,55.7,30.02,ESE,116,5.0,23.0,64,0.00,,---,0.00,VWS V14.01,2013-02-14 17:19:00,
2013-02-14 07:24:00,68.5,55.9,30.02,East,86,17.0,23.0,64,0.00,,---,0.00,VWS V14.01,2013-02-14 17:24:00,
2013-02-14 07:29:00,68.9,56.2,30.02,NNE,30,11.0,23.0,64,0.00,,---,0.00,VWS V14.01,2013-02-14 17:29:00,
2013-02-14 07:36:00,69.5,56.4,30.03,NE,36,6.0,15.0,63,0.00,,---,0.00,VWS V14.01,2013-02-14 17:36:00,
2013-02-14 07:41:00,69.8,56.7,30.02,ENE,66,8.0,15.0,63,0.00,,---,0.00,VWS V14.01,2013-02-14 17:41:00,
2013-02-14 07:46:00,70.1,56.5,30.02,East,92,3.0,15.0,62,0.00,,---,0.00,VWS V14.01,2013-02-14 17:46:00,
2013-02-14 07:51:00,70.5,56.4,30.02,ENE,76,11.0,18.0,61,0.00,,---,0.00,VWS V14.01,2013-02-14 17:51:00,
2013-02-14 07:56:00,70.8,56.7,30.02,ENE,72,7.0,18.0,61,0.00,,---,0.00,VWS V14.01,2013-02-14 17:56:00,
2013-02-14 08:01:00,71.1,57.0,30.03,NE,56,13.0,20.0,61,0.00,,---,0.00,VWS V14.01,2013-02-14 18:01:00,
2013-02-14 08:06:00,71.3,57.2,30.03,ENE,76,9.0,17.0,61,0.00,,---,0.00,VWS V14.01,2013-02-14 18:06:00,
2013-02-14 08:11:00,71.9,57.3,30.02,ENE,62,5.0,18.0,60,0.00,,---,0.00,VWS V14.01,2013-02-14 18:11:00,
2013-02-14 08:16:00,72.3,57.2,30.02,NNE,14,7.0,18.0,59,0.00,,---,0.00,VWS V14.01,2013-02-14 18:16:00,
2013-02-14 08:21:00,72.2,57.6,30.02,NNW,331,13.0,18.0,60,0.00,,---,0.00,VWS V14.01,2013-02-14 18:21:00,
2013-02-14 08:27:00,72.2,57.6,30.03,ENE,66,18.0,18.0,60,0.00,,---,0.00,VWS V14.01,2013-02-14 18:27:00,
2013-02-14 08:32:00,72.5,57.4,30.02,ENE,62,9.0,18.0,59,0.00,,---,0.00,VWS V14.01,2013-02-14 18:32:00,
2013-02-14 08:37:00,73.0,57.8,30.03,NNE,30,5.0,16.0,59,0.00,,---,0.00,VWS V14.01,2013-02-14 18:37:00,
2013-02-14 08:42:00,73.4,57.7,30.03,North,9,9.0,16.0,58,0.00,,---,0.00,VWS V14.01,2013-02-14 18:42:00,
2013-02-14 08:47:00,73.7,58.0,30.03,NNE,19,13.0,17.0,58,0.00,,---,0.00,VWS V14.01,2013-02-14 18:47:00,
2013-02-14 08:52:00,73.8,58.1,30.02,East,82,11.0,24.0,58,0.00,,---,0.00,VWS V14.01,2013-02-14 18:52:00,
2013-02-14 08:57:00,73.9,58.2,30.02,NE,42,11.0,24.0,58,0.00,,---,0.00,VWS V14.01,2013-02-14 18:57:00,
2013-02-14 09:02:00,73.9,58.2,30.02,ENE,69,12.0,24.0,58,0.00,,---,0.00,VWS V14.01,2013-02-14 19:02:00,
2013-02-14 09:07:00,74.0,57.8,30.02,NE,46,11.0,25.0,57,0.00,,---,0.00,VWS V14.01,2013-02-14 19:07:00,
2013-02-14 09:12:00,74.4,57.2,30.03,NE,44,13.0,25.0,55,0.00,,---,0.00,VWS V14.01,2013-02-14 19:12:00,
2013-02-14 09:17:00,74.6,57.4,30.03,ENE,74,7.0,25.0,55,0.00,,---,0.00,VWS V14.01,2013-02-14 19:17:00,
2013-02-14 09:22:00,75.3,58.0,30.03,NE,42,14.0,25.0,55,0.00,,---,0.00,VWS V14.01,2013-02-14 19:22:00,
2013-02-14 09:27:00,75.6,57.3,30.03,East,87,5.0,25.0,53,0.00,,---,0.00,VWS V14.01,2013-02-14 19:27:00,
2013-02-14 09:32:00,75.7,57.9,30.03,ENE,74,9.0,25.0,54,0.00,,---,0.00,VWS V14.01,2013-02-14 19:32:00,
2013-02-14 09:37:00,75.7,57.4,30.03,East,90,14.0,21.0,53,0.00,,---,0.00,VWS V14.01,2013-02-14 19:37:00,
2013-02-14 09:42:00,76.2,57.3,30.03,NE,39,10.0,21.0,52,0.00,,---,0.00,VWS V14.01,2013-02-14 19:42:00,
2013-02-14 09:47:00,76.8,57.9,30.03,East,83,9.0,22.0,52,0.00,,---,0.00,VWS V14.01,2013-02-14 19:47:00,
2013-02-14 09:52:00,77.1,57.6,30.04,NNE,22,8.0,22.0,51,0.00,,---,0.00,VWS V14.01,2013-02-14 19:52:00,
2013-02-14 09:57:00,77.4,57.3,30.04,NNE,15,8.0,22.0,50,0.00,,---,0.00,VWS V14.01,2013-02-14 19:57:00,
2013-02-14 10:03:00,77.6,57.0,30.04,East,79,18.0,23.0,49,0.00,,---,0.00,VWS V14.01,2013-02-14 20:03:00,
2013-02-14 10:08:00,77.7,57.6,30.04,ENE,69,11.0,26.0,50,0.00,,---,0.00,VWS V14.01,2013-02-14 20:08:00,
2013-02-14 10:13:00,77.7,57.6,30.04,NNW,337,9.0,26.0,50,0.00,,---,0.00,VWS V14.01,2013-02-14 20:13:00,
2013-02-14 10:18:00,78.0,57.9,30.04,East,90,13.0,26.0,50,0.00,,---,0.00,VWS V14.01,2013-02-14 20:18:00,
2013-02-14 10:23:00,78.3,58.2,30.04,East,84,15.0,26.0,50,0.00,,---,0.00,VWS V14.01,2013-02-14 20:23:00,
2013-02-14 10:28:00,78.7,58.0,30.03,ENE,77,9.0,26.0,49,0.00,,---,0.00,VWS V14.01,2013-02-14 20:28:00,
2013-02-14 10:33:00,79.2,57.2,30.03,NE,36,10.0,26.0,47,0.00,,---,0.00,VWS V14.01,2013-02-14 20:33:00,
2013-02-14 10:38:00,79.0,57.7,30.03,ENE,74,13.0,18.0,48,0.00,,---,0.00,VWS V14.01,2013-02-14 20:38:00,
2013-02-14 10:43:00,79.0,57.7,30.03,North,9,9.0,19.0,48,0.00,,---,0.00,VWS V14.01,2013-02-14 20:43:00,
2013-02-14 10:48:00,79.5,58.1,30.03,NE,36,8.0,22.0,48,0.00,,---,0.00,VWS V14.01,2013-02-14 20:48:00,
2013-02-14 10:53:00,79.3,57.9,30.03,NE,42,10.0,22.0,48,0.00,,---,0.00,VWS V14.01,2013-02-14 20:53:00,
2013-02-14 10:58:00,79.6,58.2,30.02,ENE,69,16.0,22.0,48,0.00,,---,0.00,VWS V14.01,2013-02-14 20:58:00,
2013-02-14 11:03:00,80.0,58.0,30.02,NE,39,18.0,22.0,47,0.00,,---,0.00,VWS V14.01,2013-02-14 21:03:00,
2013-02-14 11:08:00,80.8,58.1,30.02,North,355,6.0,16.0,46,0.00,,---,0.00,VWS V14.01,2013-02-14 21:08:00,
2013-02-14 11:13:00,81.4,57.4,30.01,NE,40,7.0,17.0,44,0.00,,---,0.00,VWS V14.01,2013-02-14 21:13:00,
2013-02-14 11:18:00,80.8,57.5,30.01,NNW,346,12.0,18.0,45,0.00,,---,0.00,VWS V14.01,2013-02-14 21:18:00,
2013-02-14 11:23:00,81.5,57.5,30.02,NE,44,3.0,21.0,44,0.00,,---,0.00,VWS V14.01,2013-02-14 21:23:00,
2013-02-14 11:28:00,82.0,58.0,30.01,ENE,78,13.0,21.0,44,0.00,,---,0.00,VWS V14.01,2013-02-14 21:28:00,
2013-02-14 11:33:00,82.6,58.5,30.01,NNW,338,6.0,21.0,44,0.00,,---,0.00,VWS V14.01,2013-02-14 21:33:00,
2013-02-14 11:38:00,82.7,58.0,30.01,NNE,22,7.0,19.0,43,0.00,,---,0.00,VWS V14.01,2013-02-14 21:38:00,
2013-02-14 11:43:00,82.9,57.5,30.01,East,87,18.0,19.0,42,0.00,,---,0.00,VWS V14.01,2013-02-14 21:43:00,
2013-02-14 11:49:00,83.6,56.8,30.01,NNW,342,7.0,19.0,40,0.00,,---,0.00,VWS V14.01,2013-02-14 21:49:00,
2013-02-14 11:54:00,83.4,57.3,30.01,NE,38,7.0,21.0,41,0.00,,---,0.00,VWS V14.01,2013-02-14 21:54:00,
2013-02-14 11:59:00,83.2,56.4,30.00,ENE,69,16.0,21.0,40,0.00,,---,0.00,VWS V14.01,2013-02-14 21:59:00,
2013-02-14 12:04:00,82.9,56.8,30.00,East,81,3.0,21.0,41,0.00,,---,0.00,VWS V14.01,2013-02-14 22:04:00,
2013-02-14 12:09:00,83.3,57.2,29.99,East,90,15.0,21.0,41,0.00,,---,0.00,VWS V14.01,2013-02-14 22:09:00,
2013-02-14 12:14:00,82.5,57.1,29.99,ENE,63,13.0,21.0,42,0.00,,---,0.00,VWS V14.01,2013-02-14 22:14:00,
2013-02-14 12:19:00,82.2,58.1,30.00,NNE,30,8.0,21.0,44,0.00,,---,0.00,VWS V14.01,2013-02-14 22:19:00,
2013-02-14 12:24:00,83.4,58.6,29.99,North,5,13.0,21.0,43,0.00,,---,0.00,VWS V14.01,2013-02-14 22:24:00,
2013-02-14 12:29:00,83.4,58.6,29.98,NE,49,6.0,21.0,43,0.00,,---,0.00,VWS V14.01,2013-02-14 22:29:00,
2013-02-14 12:34:00,82.8,58.0,29.98,NE,54,12.0,12.0,43,0.00,,---,0.00,VWS V14.01,2013-02-14 22:34:00,
2013-02-14 12:39:00,81.9,58.5,29.98,ENE,69,9.0,21.0,45,0.00,,---,0.00,VWS V14.01,2013-02-14 22:39:00,
2013-02-14 12:44:00,82.2,58.8,29.98,ENE,65,15.0,21.0,45,0.00,,---,0.00,VWS V14.01,2013-02-14 22:44:00,
2013-02-14 12:49:00,82.3,57.6,29.97,ENE,63,10.0,21.0,43,0.00,,---,0.00,VWS V14.01,2013-02-14 22:49:00,
2013-02-14 12:54:00,82.3,57.6,29.97,East,86,14.0,21.0,43,0.00,,---,0.00,VWS V14.01,2013-02-14 22:54:00,
2013-02-14 12:59:00,83.4,57.9,29.97,ENE,74,8.0,21.0,42,0.00,,---,0.00,VWS V14.01,2013-02-14 22:59:00,
2013-02-14 13:04:00,83.3,57.8,29.96,ENE,64,10.0,10.0,42,0.00,,---,0.00,VWS V14.01,2013-02-14 23:04:00,
2013-02-14 13:10:00,83.6,56.8,29.96,NE,49,7.0,19.0,40,0.00,,---,0.00,VWS V14.01,2013-02-14 23:10:00,
2013-02-14 13:15:00,83.9,57.0,29.96,NNW,331,7.0,19.0,40,0.00,,---,0.00,VWS V14.01,2013-02-14 23:15:00,
2013-02-14 13:20:00,85.6,57.1,29.95,ENE,61,4.0,19.0,38,0.00,,---,0.00,VWS V14.01,2013-02-14 23:20:00,
2013-02-14 13:25:00,85.1,55.2,29.94,ESE,117,3.0,19.0,36,0.00,,---,0.00,VWS V14.01,2013-02-14 23:25:00,
2013-02-14 13:30:00,84.7,56.3,29.94,East,89,17.0,19.0,38,0.00,,---,0.00,VWS V14.01,2013-02-14 23:30:00,
2013-02-14 13:35:00,85.1,56.7,29.94,East,80,14.0,14.0,38,0.00,,---,0.00,VWS V14.01,2013-02-14 23:35:00,
2013-02-14 13:40:00,85.2,58.2,29.94,NNE,25,5.0,16.0,40,0.00,,---,0.00,VWS V14.01,2013-02-14 23:40:00,
2013-02-14 13:45:00,85.1,58.8,29.94,NNW,342,4.0,16.0,41,0.00,,---,0.00,VWS V14.01,2013-02-14 23:45:00,
2013-02-14 13:50:00,83.1,60.8,29.94,NNW,332,7.0,16.0,47,0.00,,---,0.00,VWS V14.01,2013-02-14 23:50:00,
2013-02-14 13:55:00,82.3,61.8,29.94,NNE,20,3.0,16.0,50,0.00,,---,0.00,VWS V14.01,2013-02-14 23:55:00,
2013-02-14 14:00:00,83.5,61.2,29.93,NW,322,5.0,16.0,47,0.00,,---,0.00,VWS V14.01,2013-02-15 00:00:00,
2013-02-14 14:05:00,82.7,63.3,29.93,NNW,347,1.0,6.0,52,0.00,,---,0.00,VWS V14.01,2013-02-15 00:05:00,
2013-02-14 14:10:00,82.3,62.9,29.93,NNW,328,8.0,8.0,52,0.00,,---,0.00,VWS V14.01,2013-02-15 00:10:00,
2013-02-14 14:15:00,80.7,63.0,29.92,NW,321,7.0,8.0,55,0.00,,---,0.00,VWS V14.01,2013-02-15 00:15:00,
2013-02-14 14:20:00,79.8,58.4,29.93,WNW,301,3.0,8.0,48,0.00,,---,0.00,VWS V14.01,2013-02-15 00:20:00,
2013-02-14 14:25:00,79.4,60.3,29.92,West,280,4.0,10.0,52,0.00,,---,0.00,VWS V14.01,2013-02-15 00:25:00,
2013-02-14 14:30:00,79.0,62.5,29.92,West,280,10.0,11.0,57,0.00,,---,0.00,VWS V14.01,2013-02-15 00:30:00,
2013-02-14 14:35:00,78.3,62.3,29.92,West,264,6.0,11.0,58,0.00,,---,0.00,VWS V14.01,2013-02-15 00:35:00,
2013-02-14 14:40:00,78.0,62.0,29.92,West,281,9.0,12.0,58,0.00,,---,0.00,VWS V14.01,2013-02-15 00:40:00,
2013-02-14 14:45:00,78.1,62.1,29.92,WSW,257,5.0,12.0,58,0.00,,---,0.00,VWS V14.01,2013-02-15 00:45:00,
2013-02-14 14:51:00,78.4,62.4,29.92,West,260,5.0,12.0,58,0.00,,---,0.00,VWS V14.01,2013-02-15 00:51:00,
2013-02-14 14:56:00,78.4,62.4,29.92,WSW,254,4.0,12.0,58,0.00,,---,0.00,VWS V14.01,2013-02-15 00:56:00,
2013-02-14 15:01:00,78.2,61.7,29.92,West,264,5.0,12.0,57,0.00,,---,0.00,VWS V14.01,2013-02-15 01:01:00,
2013-02-14 15:06:00,78.2,61.7,29.92,WSW,257,3.0,5.0,57,0.00,,---,0.00,VWS V14.01,2013-02-15 01:06:00,
2013-02-14 15:11:00,78.4,60.4,29.92,SW,228,6.0,7.0,54,0.00,,---,0.00,VWS V14.01,2013-02-15 01:11:00,
2013-02-14 15:16:00,79.0,60.4,29.92,SW,231,2.0,8.0,53,0.00,,---,0.00,VWS V14.01,2013-02-15 01:16:00,
2013-02-14 15:21:00,78.9,60.9,29.93,WSW,246,2.0,8.0,54,0.00,,---,0.00,VWS V14.01,2013-02-15 01:21:00,
2013-02-14 15:26:00,78.7,63.2,29.93,West,260,3.0,8.0,59,0.00,,---,0.00,VWS V14.01,2013-02-15 01:26:00,
2013-02-14 15:31:00,78.2,61.2,29.92,SW,221,3.0,8.0,56,0.00,,---,0.00,VWS V14.01,2013-02-15 01:31:00,
2013-02-14 15:36:00,78.7,61.7,29.92,WSW,246,4.0,5.0,56,0.00,,---,0.00,VWS V14.01,2013-02-15 01:36:00,
2013-02-14 15:41:00,78.4,61.4,29.92,West,263,4.0,6.0,56,0.00,,---,0.00,VWS V14.01,2013-02-15 01:41:00,
2013-02-14 15:46:00,78.4,61.9,29.92,West,261,4.0,6.0,57,0.00,,---,0.00,VWS V14.01,2013-02-15 01:46:00,
2013-02-14 15:51:00,78.1,62.1,29.93,West,262,5.0,6.0,58,0.00,,---,0.00,VWS V14.01,2013-02-15 01:51:00,
2013-02-14 15:56:00,78.2,62.2,29.93,SW,217,2.0,6.0,58,0.00,,---,0.00,VWS V14.01,2013-02-15 01:56:00,
2013-02-14 16:01:00,78.1,61.1,29.93,SW,227,3.0,6.0,56,0.00,,---,0.00,VWS V14.01,2013-02-15 02:01:00,
2013-02-14 16:06:00,78.1,62.1,29.93,SW,217,1.0,6.0,58,0.00,,---,0.00,VWS V14.01,2013-02-15 02:06:00,
2013-02-14 16:11:00,78.1,61.1,29.93,South,188,3.0,6.0,56,0.00,,---,0.00,VWS V14.01,2013-02-15 02:11:00,
2013-02-14 16:16:00,77.9,60.5,29.93,SW,235,3.0,6.0,55,0.00,,---,0.00,VWS V14.01,2013-02-15 02:16:00,
2013-02-14 16:21:00,77.8,61.4,29.93,WSW,240,4.0,6.0,57,0.00,,---,0.00,VWS V14.01,2013-02-15 02:21:00,
2013-02-14 16:26:00,77.6,60.2,29.93,WSW,251,3.0,6.0,55,0.00,,---,0.00,VWS V14.01,2013-02-15 02:26:00,
2013-02-14 16:31:00,77.3,61.4,29.93,West,267,3.0,6.0,58,0.00,,---,0.00,VWS V14.01,2013-02-15 02:31:00,
2013-02-14 16:36:00,77.2,61.3,29.93,West,262,2.0,4.0,58,0.00,,---,0.00,VWS V14.01,2013-02-15 02:36:00,
2013-02-14 16:41:00,77.2,61.3,29.93,WSW,248,0.0,5.0,58,0.00,,---,0.00,VWS V14.01,2013-02-15 02:41:00,
2013-02-14 16:46:00,77.0,61.6,29.93,SW,215,4.0,6.0,59,0.00,,---,0.00,VWS V14.01,2013-02-15 02:46:00,
2013-02-14 16:52:00,76.9,62.0,29.93,West,273,4.0,7.0,60,0.00,,---,0.00,VWS V14.01,2013-02-15 02:52:00,
2013-02-14 16:57:00,76.8,62.3,29.93,West,278,6.0,7.0,61,0.00,,---,0.00,VWS V14.01,2013-02-15 02:57:00,
2013-02-14 17:02:00,76.9,63.4,29.93,West,268,3.0,9.0,63,0.00,,---,0.00,VWS V14.01,2013-02-15 03:02:00,
2013-02-14 17:07:00,76.6,63.1,29.94,West,267,6.0,7.0,63,0.00,,---,0.00,VWS V14.01,2013-02-15 03:07:00,
2013-02-14 17:12:00,76.5,61.6,29.94,WNW,284,0.0,7.0,60,0.00,,---,0.00,VWS V14.01,2013-02-15 03:12:00,
2013-02-14 17:17:00,77.1,60.7,29.94,WNW,292,0.0,7.0,57,0.00,,---,0.00,VWS V14.01,2013-02-15 03:17:00,
2013-02-14 17:22:00,77.2,58.8,29.94,East,88,6.0,14.0,53,0.00,,---,0.00,VWS V14.01,2013-02-15 03:22:00,
2013-02-14 17:27:00,76.5,57.6,29.94,NE,53,9.0,23.0,52,0.00,,---,0.00,VWS V14.01,2013-02-15 03:27:00,
2013-02-14 17:32:00,76.0,57.7,29.94,ESE,109,4.0,23.0,53,0.00,,---,0.00,VWS V14.01,2013-02-15 03:32:00,
2013-02-14 17:37:00,75.9,57.0,29.94,ENE,60,12.0,16.0,52,0.00,,---,0.00,VWS V14.01,2013-02-15 03:37:00,
2013-02-14 17:42:00,75.9,57.0,29.94,ESE,104,7.0,16.0,52,0.00,,---,0.00,VWS V14.01,2013-02-15 03:42:00,
2013-02-14 17:47:00,75.8,56.9,29.94,NE,56,10.0,16.0,52,0.00,,---,0.00,VWS V14.01,2013-02-15 03:47:00,
2013-02-14 17:52:00,75.5,56.7,29.94,East,96,7.0,16.0,52,0.00,,---,0.00,VWS V14.01,2013-02-15 03:52:00,
2013-02-14 17:56:00,72.6,57.9,29.96,ENE,65,5.0,18.0,60,0.00,,---,0.00,VWS V14.01,2013-02-15 03:56:00,
2013-02-14 17:57:00,75.3,56.5,29.94,ESE,111,3.0,17.0,52,0.00,,---,0.00,VWS V14.01,2013-02-15 03:57:00,
2013-02-14 17:58:00,72.5,57.8,29.96,East,85,7.0,18.0,60,0.00,,---,0.00,VWS V14.01,2013-02-15 03:58:00,
2013-02-14 17:59:00,72.4,57.8,29.96,East,101,6.0,18.0,60,0.00,,---,0.00,VWS V14.01,2013-02-15 03:59:00,
2013-02-14 18:00:00,72.4,57.8,29.96,ENE,67,2.0,18.0,60,0.00,,---,0.00,VWS V14.01,2013-02-15 04:00:00,
2013-02-14 18:01:00,72.5,57.4,29.95,East,92,6.0,10.0,59,0.00,,---,0.00,VWS V14.01,2013-02-15 04:01:00,
2013-02-14 18:02:00,75.0,56.2,29.94,East,86,15.0,22.0,52,0.00,,---,0.00,VWS V14.01,2013-02-15 04:02:00,
2013-02-14 18:03:00,72.5,57.4,29.95,ENE,78,2.0,10.0,59,0.00,,---,0.00,VWS V14.01,2013-02-15 04:03:00,
2013-02-14 18:04:00,72.6,57.5,29.95,ENE,74,14.0,14.0,59,0.00,,---,0.00,VWS V14.01,2013-02-15 04:04:00,
2013-02-14 18:05:00,72.6,57.0,29.96,East,90,8.0,14.0,58,0.00,,---,0.00,VWS V14.01,2013-02-15 04:05:00,
2013-02-14 18:06:00,72.7,57.1,29.96,ENE,71,8.0,17.0,58,0.00,,---,0.00,VWS V14.01,2013-02-15 04:06:00,
2013-02-14 18:07:00,74.8,56.0,29.94,ENE,63,14.0,25.0,52,0.00,,---,0.00,VWS V14.01,2013-02-15 04:07:00,
2013-02-14 18:08:00,72.8,57.2,29.96,ENE,75,7.0,17.0,58,0.00,,---,0.00,VWS V14.01,2013-02-15 04:08:00,
2013-02-14 18:09:00,72.9,57.3,29.96,ESE,105,4.0,17.0,58,0.00,,---,0.00,VWS V14.01,2013-02-15 04:09:00,
2013-02-14 18:10:00,72.9,57.8,29.96,SE,128,5.0,17.0,59,0.00,,---,0.00,VWS V14.01,2013-02-15 04:10:00,
2013-02-14 18:11:00,72.9,58.2,29.96,East,83,3.0,17.0,60,0.00,,---,0.00,VWS V14.01,2013-02-15 04:11:00,
2013-02-14 18:12:00,74.5,56.3,29.94,NE,47,6.0,25.0,53,0.00,,---,0.00,VWS V14.01,2013-02-15 04:12:00,
2013-02-14 18:13:00,72.8,58.1,29.96,East,97,1.0,17.0,60,0.00,,---,0.00,VWS V14.01,2013-02-15 04:13:00,
2013-02-14 18:14:00,72.7,58.0,29.96,ENE,74,10.0,17.0,60,0.00,,---,0.00,VWS V14.01,2013-02-15 04:14:00,
2013-02-14 18:15:00,72.7,58.0,29.96,East,90,14.0,17.0,60,0.00,,---,0.00,VWS V14.01,2013-02-15 04:15:00,
2013-02-14 18:16:00,72.7,58.0,29.96,East,90,5.0,17.0,60,0.00,,---,0.00,VWS V14.01,2013-02-15 04:16:00,
2013-02-14 18:17:00,74.3,56.6,29.94,ESE,108,3.0,25.0,54,0.00,,---,0.00,VWS V14.01,2013-02-15 04:17:00,
2013-02-14 18:18:00,72.7,58.0,29.96,East,98,7.0,17.0,60,0.00,,---,0.00,VWS V14.01,2013-02-15 04:18:00,
2013-02-14 18:19:00,72.7,58.0,29.97,East,98,9.0,17.0,60,0.00,,---,0.00,VWS V14.01,2013-02-15 04:19:00,
2013-02-14 18:20:00,72.6,57.9,29.97,ENE,66,12.0,17.0,60,0.00,,---,0.00,VWS V14.01,2013-02-15 04:20:00,
2013-02-14 18:21:00,72.7,57.6,29.97,ENE,72,5.0,17.0,59,0.00,,---,0.00,VWS V14.01,2013-02-15 04:21:00,
2013-02-14 18:22:00,74.0,56.3,29.95,East,80,15.0,25.0,54,0.00,,---,0.00,VWS V14.01,2013-02-15 04:22:00,
2013-02-14 18:23:00,72.7,57.6,29.96,East,80,10.0,17.0,59,0.00,,---,0.00,VWS V14.01,2013-02-15 04:23:00,
2013-02-14 18:24:00,72.6,57.5,29.96,NE,49,4.0,17.0,59,0.00,,---,0.00,VWS V14.01,2013-02-15 04:24:00,
2013-02-14 18:25:00,72.6,57.5,29.97,ENE,70,10.0,17.0,59,0.00,,---,0.00,VWS V14.01,2013-02-15 04:25:00,
2013-02-14 18:26:00,72.6,57.0,29.97,East,84,8.0,17.0,58,0.00,,---,0.00,VWS V14.01,2013-02-15 04:26:00,
2013-02-14 18:27:00,72.6,56.5,29.97,NNE,27,6.0,17.0,57,0.00,,---,0.00,VWS V14.01,2013-02-15 04:27:00,
2013-02-14 18:28:00,73.9,56.2,29.95,East,93,7.0,25.0,54,0.00,,---,0.00,VWS V14.01,2013-02-15 04:28:00,
2013-02-14 18:29:00,72.5,56.4,29.97,East,80,7.0,17.0,57,0.00,,---,0.00,VWS V14.01,2013-02-15 04:29:00,
2013-02-14 18:30:00,72.5,56.4,29.97,NE,46,6.0,17.0,57,0.00,,---,0.00,VWS V14.01,2013-02-15 04:30:00,
2013-02-14 18:31:00,72.5,56.4,29.97,ENE,67,4.0,12.0,57,0.00,,---,0.00,VWS V14.01,2013-02-15 04:31:00,
2013-02-14 18:32:00,72.5,56.4,29.96,East,97,7.0,12.0,57,0.00,,---,0.00,VWS V14.01,2013-02-15 04:32:00,
2013-02-14 18:33:00,73.6,56.5,29.96,ENE,65,5.0,25.0,55,0.00,,---,0.00,VWS V14.01,2013-02-15 04:33:00,
2013-02-14 18:34:00,72.4,56.3,29.96,ENE,63,12.0,18.0,57,0.00,,---,0.00,VWS V14.01,2013-02-15 04:34:00,
2013-02-14 18:35:00,72.5,56.4,29.97,North,11,8.0,18.0,57,0.00,,---,0.00,VWS V14.01,2013-02-15 04:35:00,
2013-02-14 18:36:00,72.5,56.4,29.96,NNE,17,8.0,18.0,57,0.00,,---,0.00,VWS V14.01,2013-02-15 04:36:00,
2013-02-14 18:37:00,72.5,56.4,29.97,NNE,22,6.0,18.0,57,0.00,,---,0.00,VWS V14.01,2013-02-15 04:37:00,
2013-02-14 18:38:00,73.4,56.8,29.95,East,92,7.0,16.0,56,0.00,,---,0.00,VWS V14.01,2013-02-15 04:38:00,
2013-02-14 18:39:00,72.5,56.9,29.97,ENE,70,11.0,18.0,58,0.00,,---,0.00,VWS V14.01,2013-02-15 04:39:00,
2013-02-14 18:40:00,72.5,56.4,29.97,NNE,22,3.0,18.0,57,0.00,,---,0.00,VWS V14.01,2013-02-15 04:40:00,
2013-02-14 18:41:00,72.6,56.5,29.96,ENE,57,5.0,18.0,57,0.00,,---,0.00,VWS V14.01,2013-02-15 04:41:00,
2013-02-14 18:42:00,72.5,56.4,29.97,NE,50,11.0,18.0,57,0.00,,---,0.00,VWS V14.01,2013-02-15 04:42:00,
2013-02-14 18:43:00,73.2,57.1,29.95,East,96,7.0,16.0,57,0.00,,---,0.00,VWS V14.01,2013-02-15 04:43:00,
2013-02-14 18:44:00,72.6,56.5,29.97,East,88,18.0,20.0,57,0.00,,---,0.00,VWS V14.01,2013-02-15 04:44:00,
2013-02-14 18:45:00,72.6,56.5,29.97,East,85,13.0,20.0,57,0.00,,---,0.00,VWS V14.01,2013-02-15 04:45:00,
2013-02-14 18:46:00,72.7,57.1,29.97,East,92,8.0,20.0,58,0.00,,---,0.00,VWS V14.01,2013-02-15 04:46:00,
2013-02-14 18:47:00,72.7,57.1,29.97,ENE,76,16.0,20.0,58,0.00,,---,0.00,VWS V14.01,2013-02-15 04:47:00,
2013-02-14 18:48:00,73.0,57.4,29.96,ENE,63,11.0,16.0,58,0.00,,---,0.00,VWS V14.01,2013-02-15 04:48:00,
2013-02-14 18:49:00,72.7,57.1,29.98,ENE,76,11.0,20.0,58,0.00,,---,0.00,VWS V14.01,2013-02-15 04:49:00,
2013-02-14 18:50:00,72.6,57.5,29.98,ENE,78,7.0,20.0,59,0.00,,---,0.00,VWS V14.01,2013-02-15 04:50:00,
2013-02-14 18:51:00,72.6,57.5,29.98,East,81,2.0,20.0,59,0.00,,---,0.00,VWS V14.01,2013-02-15 04:51:00,
2013-02-14 18:52:00,72.5,57.4,29.97,ENE,63,7.0,20.0,59,0.00,,---,0.00,VWS V14.01,2013-02-15 04:52:00,
2013-02-14 18:53:00,72.7,57.6,29.96,East,100,8.0,16.0,59,0.00,,---,0.00,VWS V14.01,2013-02-15 04:53:00,
2013-02-14 18:54:00,72.4,57.8,29.98,ENE,68,4.0,20.0,60,0.00,,---,0.00,VWS V14.01,2013-02-15 04:54:00,
2013-02-14 18:55:00,72.4,57.8,29.98,NNE,15,11.0,20.0,60,0.00,,---,0.00,VWS V14.01,2013-02-15 04:55:00,
2013-02-14 18:56:00,72.3,57.7,29.98,ENE,77,8.0,20.0,60,0.00,,---,0.00,VWS V14.01,2013-02-15 04:56:00,
2013-02-14 18:57:00,72.2,57.6,29.98,East,82,11.0,20.0,60,0.00,,---,0.00,VWS V14.01,2013-02-15 04:57:00,
2013-02-14 18:58:00,72.6,57.9,29.96,East,89,15.0,18.0,60,0.00,,---,0.00,VWS V14.01,2013-02-15 04:58:00,
2013-02-14 18:59:00,72.1,57.5,29.98,ENE,78,7.0,20.0,60,0.00,,---,0.00,VWS V14.01,2013-02-15 04:59:00,
2013-02-14 19:00:00,72.1,57.5,29.98,East,93,5.0,20.0,60,0.00,,---,0.00,VWS V14.01,2013-02-15 05:00:00,
2013-02-14 19:01:00,72.0,57.4,29.98,ENE,68,16.0,16.0,60,0.00,,---,0.00,VWS V14.01,2013-02-15 05:01:00,
2013-02-14 19:02:00,72.0,57.4,29.98,NNE,32,9.0,16.0,60,0.00,,---,0.00,VWS V14.01,2013-02-15 05:02:00,
2013-02-14 19:03:00,71.9,57.3,29.98,ENE,69,5.0,16.0,60,0.00,,---,0.00,VWS V14.01,2013-02-15 05:03:00,
2013-02-14 19:04:00,71.9,57.7,29.98,ESE,122,9.0,18.0,61,0.00,,---,0.00,VWS V14.01,2013-02-15 05:04:00,
2013-02-14 19:05:00,71.8,57.6,29.98,ENE,74,13.0,18.0,61,0.00,,---,0.00,VWS V14.01,2013-02-15 05:05:00,
2013-02-14 19:07:00,71.8,57.6,29.98,NNE,24,4.0,18.0,61,0.00,,---,0.00,VWS V14.01,2013-02-15 05:07:00,
2013-02-14 19:08:00,71.8,57.6,29.98,East,87,6.0,18.0,61,0.00,,---,0.00,VWS V14.01,2013-02-15 05:08:00,
2013-02-14 19:10:00,71.7,57.5,29.99,ESE,105,20.0,22.0,61,0.00,,---,0.00,VWS V14.01,2013-02-15 05:10:00,
2013-02-14 19:11:00,71.7,57.5,29.99,ENE,63,8.0,22.0,61,0.00,,---,0.00,VWS V14.01,2013-02-15 05:11:00,
2013-02-14 19:15:00,71.6,57.5,29.99,East,89,19.0,22.0,61,0.00,,---,0.00,VWS V14.01,2013-02-15 05:15:00,
2013-02-14 19:16:00,71.6,57.5,29.99,ENE,73,9.0,22.0,61,0.00,,---,0.00,VWS V14.01,2013-02-15 05:16:00,
2013-02-14 19:23:00,71.5,57.8,30.00,ENE,59,5.0,22.0,62,0.00,,---,0.00,VWS V14.01,2013-02-15 05:23:00,
2013-02-14 20:11:00,71.8,57.6,29.98,ENE,63,15.0,18.0,61,0.00,,---,0.00,VWS V14.01,2013-02-15 06:11:00,
2013-02-14 20:17:00,71.7,57.5,29.99,ENE,68,17.0,22.0,61,0.00,,---,0.00,VWS V14.01,2013-02-15 06:17:00,
2013-02-14 20:22:00,71.6,57.9,30.00,East,86,9.0,22.0,62,0.00,,---,0.00,VWS V14.01,2013-02-15 06:22:00,
2013-02-14 20:28:00,71.5,57.8,30.00,ENE,69,11.0,22.0,62,0.00,,---,0.00,VWS V14.01,2013-02-15 06:28:00,
2013-02-14 20:33:00,71.2,57.5,29.99,ESE,105,15.0,22.0,62,0.00,,---,0.00,VWS V14.01,2013-02-15 06:33:00,
2013-02-14 20:38:00,71.2,57.5,29.99,ENE,77,10.0,16.0,62,0.00,,---,0.00,VWS V14.01,2013-02-15 06:38:00,
2013-02-14 20:43:00,71.1,57.4,29.99,ENE,65,5.0,19.0,62,0.00,,---,0.00,VWS V14.01,2013-02-15 06:43:00,
2013-02-14 20:48:00,71.1,57.4,29.99,East,101,5.0,23.0,62,0.00,,---,0.00,VWS V14.01,2013-02-15 06:48:00,
2013-02-14 20:53:00,70.9,57.7,29.99,ENE,63,4.0,23.0,63,0.00,,---,0.00,VWS V14.01,2013-02-15 06:53:00,
2013-02-14 20:58:00,70.9,57.7,29.99,East,88,9.0,23.0,63,0.00,,---,0.00,VWS V14.01,2013-02-15 06:58:00,
2013-02-14 21:03:00,70.9,57.7,29.99,East,90,16.0,23.0,63,0.00,,---,0.00,VWS V14.01,2013-02-15 07:03:00,
2013-02-14 21:08:00,71.0,57.8,29.99,ENE,78,7.0,17.0,63,0.00,,---,0.00,VWS V14.01,2013-02-15 07:08:00,
2013-02-14 21:13:00,71.0,57.8,30.00,ENE,60,7.0,17.0,63,0.00,,---,0.00,VWS V14.01,2013-02-15 07:13:00,
2013-02-14 21:18:00,70.9,58.1,30.00,East,82,10.0,17.0,64,0.00,,---,0.00,VWS V14.01,2013-02-15 07:18:00,
2013-02-14 21:23:00,70.9,58.1,29.99,East,84,8.0,17.0,64,0.00,,---,0.00,VWS V14.01,2013-02-15 07:23:00,
2013-02-14 21:28:00,71.0,57.3,29.99,ENE,71,5.0,17.0,62,0.00,,---,0.00,VWS V14.01,2013-02-15 07:28:00,
2013-02-14 21:33:00,71.2,57.1,30.00,NE,37,11.0,17.0,61,0.00,,---,0.00,VWS V14.01,2013-02-15 07:33:00,
2013-02-14 21:38:00,71.4,56.8,30.00,ENE,61,9.0,16.0,60,0.00,,---,0.00,VWS V14.01,2013-02-15 07:38:00,
2013-02-14 21:43:00,71.4,56.8,29.99,ESE,112,7.0,16.0,60,0.00,,---,0.00,VWS V14.01,2013-02-15 07:43:00,
2013-02-14 21:48:00,71.4,57.3,30.00,East,94,6.0,19.0,61,0.00,,---,0.00,VWS V14.01,2013-02-15 07:48:00,
2013-02-14 21:53:00,71.3,56.7,30.00,East,88,11.0,19.0,60,0.00,,---,0.00,VWS V14.01,2013-02-15 07:53:00,
2013-02-14 21:58:00,71.4,56.8,29.99,NE,48,11.0,20.0,60,0.00,,---,0.00,VWS V14.01,2013-02-15 07:58:00,
2013-02-14 22:04:00,71.5,56.9,29.99,NNE,26,5.0,20.0,60,0.00,,---,0.00,VWS V14.01,2013-02-15 08:04:00,
2013-02-14 22:09:00,71.6,56.1,29.99,East,85,8.0,17.0,58,0.00,,---,0.00,VWS V14.01,2013-02-15 08:09:00,
2013-02-14 22:14:00,71.6,56.1,30.00,ENE,57,8.0,17.0,58,0.00,,---,0.00,VWS V14.01,2013-02-15 08:14:00,
2013-02-14 22:19:00,71.5,56.9,30.00,ESE,113,11.0,17.0,60,0.00,,---,0.00,VWS V14.01,2013-02-15 08:19:00,
2013-02-14 22:24:00,71.3,57.6,29.99,East,98,13.0,17.0,62,0.00,,---,0.00,VWS V14.01,2013-02-15 08:24:00,
2013-02-14 22:29:00,71.2,58.4,29.99,ENE,67,15.0,24.0,64,0.00,,---,0.00,VWS V14.01,2013-02-15 08:29:00,
2013-02-14 22:34:00,71.1,57.9,29.99,ENE,65,10.0,24.0,63,0.00,,---,0.00,VWS V14.01,2013-02-15 08:34:00,
2013-02-14 22:39:00,70.9,57.7,29.99,NE,54,14.0,17.0,63,0.00,,---,0.00,VWS V14.01,2013-02-15 08:39:00,
2013-02-14 22:44:00,70.7,57.9,29.99,NE,39,6.0,17.0,64,0.00,,---,0.00,VWS V14.01,2013-02-15 08:44:00,
2013-02-14 22:49:00,70.5,57.8,29.99,East,84,9.0,22.0,64,0.00,,---,0.00,VWS V14.01,2013-02-15 08:49:00,
2013-02-14 22:54:00,70.6,57.8,29.99,ENE,74,14.0,22.0,64,0.00,,---,0.00,VWS V14.01,2013-02-15 08:54:00,
2013-02-14 22:59:00,70.5,57.8,29.99,NE,36,8.0,22.0,64,0.00,,---,0.00,VWS V14.01,2013-02-15 08:59:00,
2013-02-14 23:04:00,70.3,58.0,29.99,ENE,70,11.0,11.0,65,0.00,,---,0.00,VWS V14.01,2013-02-15 09:04:00,
2013-02-14 23:09:00,70.2,57.5,29.99,ESE,108,11.0,12.0,64,0.00,,---,0.00,VWS V14.01,2013-02-15 09:09:00,
2013-02-14 23:14:00,70.1,57.8,29.98,NE,40,3.0,17.0,65,0.00,,---,0.00,VWS V14.01,2013-02-15 09:14:00,
2013-02-14 23:19:00,70.2,58.3,29.99,ENE,71,11.0,26.0,66,0.00,,---,0.00,VWS V14.01,2013-02-15 09:19:00,
2013-02-14 23:24:00,70.2,57.9,29.99,ENE,69,10.0,26.0,65,0.00,,---,0.00,VWS V14.01,2013-02-15 09:24:00,
2013-02-14 23:29:00,70.1,57.8,29.99,North,5,5.0,26.0,65,0.00,,---,0.00,VWS V14.01,2013-02-15 09:29:00,
2013-02-14 23:34:00,70.1,57.8,29.99,NE,53,6.0,11.0,65,0.00,,---,0.00,VWS V14.01,2013-02-15 09:34:00,
2013-02-14 23:39:00,70.1,57.8,29.99,ENE,74,12.0,20.0,65,0.00,,---,0.00,VWS V14.01,2013-02-15 09:39:00,
2013-02-14 23:44:00,70.1,57.4,29.99,NE,44,6.0,21.0,64,0.00,,---,0.00,VWS V14.01,2013-02-15 09:44:00,
2013-02-14 23:49:00,70.0,57.3,29.99,ENE,68,18.0,21.0,64,0.00,,---,0.00,VWS V14.01,2013-02-15 09:49:00,
2013-02-14 23:54:00,70.1,56.9,29.98,East,84,15.0,21.0,63,0.00,,---,0.00,VWS V14.01,2013-02-15 09:54:00,
2013-02-14 23:59:00,70.3,57.6,29.98,NE,44,14.0,22.0,64,0.00,,---,0.00,VWS V14.01,2013-02-15 09:59:00,